Temperature
20 20 20 20 20 20 20 20 20 20 20 20 20 19 19 19 19 19 19 19 19 19 19 19 19 19 19 19 18 18 18 18 18 18 18 18 18 18 18 18 18 18 18
20 20 20 20 20 20 20 20 20 20 20 19 19 19 19 19 19 19 19 19 19 19 19 19 19 19 19 19 18 18 18 18 18 18 18 18 18 18 18 18 18 18 17
21 20 20 20 20 20 20 20 19 19 19 19 19 19 19 19 19 19 19 19 19 19 19 19 19 19 19 18 18 18 18 18 18 18 18 18 18 18 18 18 18 18 18
21 20 20 20 20 20 19 19 19 19 19 19 19 19 19 19 19 19 19 19 19 19 19 19 19 19 18 18 18 18 18 18 18 18 18 18 18 18 18 18 18 18 18
21 20 20 20 20 20 19 19 19 19 19 19 19 19 19 19 19 19 19 19 19 19 19 18 18 18 18 18 18 18 18 18 18 18 18 18 18 18 18 18 18 18 18
21 20 20 20 20 19 19 19 19 19 19 19 19 19 19 19 19 19 19 19 19 19 18 18 18 18 18 18 18 18 18 18 18 18 18 18 18 18 18 18 18 18 18
20 20 20 20 20 19 19 19 19 19 19 19 19 19 19 19 19 19 19 19 19 19 18 18 18 18 18 18 18 18 18 18 18 18 18 18 18 18 18 18 18 18 18
21 20 20 20 20 19 19 19 19 19 19 19 19 19 19 19 19 19 19 19 19 19 18 18 18 18 18 18 18 18 18 18 18 18 18 18 18 18 18 18 18 18 18
20 20 20 20 19 19 19 19 19 19 19 19 19 19 19 19 19 18 18 18 18 18 18 18 18 18 18 18 18 18 18 18 18 18 18 18 18 18 18 18 18 18 18
20 20 20 20 19 19 19 19 19 19 19 19 19 19 18 18 18 18 18 18 18 18 18 18 18 18 18 18 18 18 18 18 18 18 18 18 18 18 18 18 18 18 18
20 20 20 20 19 19 19 19 19 19 19 19 19 18 18 18 18 18 18 18 18 18 18 18 18 18 18 18 18 18 18 18 18 18 18 18 18 18 18 18 18 18 18
20 20 20 19 19 19 19 19 19 19 19 19 19 18 18 18 18 18 18 18 18 18 18 18 18 18 18 18 18 18 18 18 18 18 18 18 18 18 18 18 18 18 18
20 20 19 19 19 19 19 19 19 19 18 18 18 18 18 18 18 18 18 18 18 18 18 18 18 18 18 18 18 18 18 18 18 18 18 18 18 18 18 18 18 18 18
20 19 19 19 19 19 19 19 19 18 18 18 18 18 18 18 18 18 18 18 18 18 18 18 18 18 18 18 18 18 18 18 18 18 18 18 18 18 18 18 18 18 18
20 20 19 19 19 19 19 19 18 18 18 18 18 18 18 18 18 18 18 18 18 18 18 18 18 18 18 18 18 18 18 18 18 18 18 18 18 18 18 18 18 18 17
20 20 20 19 19 19 19 19 18 18 18 18 18 18 18 18 18 18 18 18 18 18 18 18 18 18 18 18 18 18 18 18 18 18 18 18 18 18 18 18 17 17 17
20 20 20 19 19 19 19 18 18 18 18 18 18 18 18 18 18 18 18 18 18 18 18 18 18 17 17 17 18 18 17 17 18 18 18 18 18 18 18 17 17 17 17
20 20 20 19 19 19 18 18 18 18 18 18 18 18 18 18 18 18 18 18 18 18 18 18 18 18 17 17 18 18 18 17 17 18 18 18 18 18 18 17 17 17 17
20 20 20 19 19 19 19 18 18 18 18 18 18 18 17 17 17 17 18 18 18 18 18 18 17 17 17 17 17 18 18 17 17 17 17 17 18 18 17 17 17 17 17
20 20 19 19 19 19 19 18 18 18 18 18 17 17 17 17 17 17 17 17 17 17 17 17 17 17 17 17 17 17 17 17 17 17 17 17 17 17 17 17 17 17 17
20 20 19 19 19 19 18 18 18 18 18 17 17 17 17 17 17 17 17 17 17 17 17 17 17 17 17 17 17 17 17 17 17 17 17 17 17 17 17 17 17 17 17
20 20 19 19 19 18 18 18 18 18 17 17 17 17 17 17 17 17 17 17 17 17 17 17 17 17 17 17 17 17 17 17 17 17 17 17 17 17 17 17 17 17 17
20 20 19 19 19 18 18 18 18 18 18 17 17 17 17 17 17 17 17 17 17 17 17 17 17 17 17 17 17 17 16 17 17 17 17 17 17 17 17 17 17 17 16
20 20 19 19 18 18 18 18 18 18 17 17 17 17 17 17 17 17 17 17 17 17 17 17 17 17 17 17 17 16 16 16 16 16 17 17 17 17 17 17 16 16 16
20 20 19 19 18 18 18 18 18 18 17 17 17 17 17 17 17 17 17 17 17 17 17 17 16 16 16 16 16 16 16 16 16 16 16 16 16 16 16 16 16 16 16
20 20 19 19 18 18 18 18 17 17 17 17 17 17 17 17 17 17 17 16 16 16 16 16 16 16 16 16 16 16 16 16 16 16 16 16 16 16 16 16 16 16 16
Wind_Speed
5 8 13 13 13 13 12 11 10 11 12 12 12 13 13 14 14 14 14 14 14 13 13 12 12 11 11 10 10 10 10 10 10 10 9 9 10 10 10 10 9 9 11
8 11 13 13 13 12 12 11 11 11 11 11 12 12 12 13 13 13 13 13 13 12 12 12 11 10 10 9 9 9 9 8 9 9 8 8 8 8 8 9 9 9 11
10 11 13 14 13 12 12 12 11 11 11 11 11 11 11 12 12 12 12 12 12 11 11 11 10 9 9 8 8 7 7 7 7 7 7 6 6 7 8 9 9 10 10
11 11 12 14 13 13 12 12 11 11 11 11 10 10 11 11 11 11 11 11 11 11 10 9 9 9 8 7 7 6 6 6 6 6 5 5 6 7 8 9 9 10 10
10 11 13 14 13 12 12 11 11 11 10 10 9 9 10 10 11 11 11 10 11 10 9 8 8 8 8 8 7 6 5 5 5 5 5 5 6 8 9 9 9 10 10
10 11 13 14 13 12 11 10 10 10 9 9 8 8 9 9 10 10 10 9 10 10 9 8 8 8 8 7 7 6 5 4 4 4 5 6 7 8 9 9 9 9 10
9 9 12 13 12 11 10 10 9 9 8 8 8 8 8 9 9 9 9 9 9 9 9 8 8 8 8 7 7 6 5 5 3 3 5 7 8 9 10 10 10 10 10
10 9 11 12 11 10 9 9 9 8 7 6 7 7 8 8 8 8 8 9 9 8 8 8 8 8 8 8 7 7 6 5 4 3 4 7 9 10 11 11 11 10 11
9 8 8 9 9 9 9 8 8 7 6 6 7 7 7 7 7 8 8 9 9 9 9 9 9 9 9 8 8 7 7 5 4 3 4 6 10 12 12 12 12 11 11
8 6 6 6 6 6 7 8 7 7 6 5 5 6 6 6 6 8 8 9 10 10 10 9 10 9 9 8 7 7 6 4 4 4 4 7 10 12 12 13 12 12 12
7 5 4 4 4 5 6 6 6 6 5 4 3 4 4 3 4 6 7 8 9 10 10 10 10 9 8 8 7 7 6 3 4 4 5 8 11 13 13 13 13 13 12
6 4 3 4 3 4 4 4 4 4 4 3 2 2 2 2 3 4 5 6 7 8 9 10 10 9 7 6 7 7 4 4 4 5 7 10 11 12 13 14 14 14 13
7 5 3 3 3 3 2 3 3 2 2 2 2 2 1 1 2 2 2 3 4 5 5 5 6 6 5 5 5 5 5 4 5 6 7 10 11 12 13 14 14 14 14
7 5 4 4 3 2 2 2 3 2 2 2 2 2 1 0 0 1 1 2 2 2 2 2 2 3 4 5 5 5 5 4 5 6 7 11 12 13 14 15 14 14 14
7 5 4 4 3 2 2 1 3 2 3 3 2 1 2 1 0 0 1 1 1 1 1 1 1 2 2 3 4 4 4 5 5 6 6 10 11 12 12 13 13 13 13
6 5 4 4 3 3 2 2 2 3 3 2 1 1 1 1 1 0 0 0 1 1 2 1 1 2 1 2 3 3 4 4 5 5 6 7 9 11 12 12 13 12 13
5 4 4 4 3 3 2 2 2 2 3 2 1 1 1 1 1 1 0 0 1 1 0 1 1 1 0 1 2 2 2 4 4 5 5 5 7 9 10 11 11 12 12
6 5 4 4 3 2 2 2 2 2 3 2 2 1 1 1 1 1 1 0 1 0 1 1 1 0 1 1 1 2 1 1 3 4 4 5 6 6 7 9 10 10 11
7 5 4 3 3 2 2 2 2 2 2 2 2 2 1 1 1 2 1 0 1 1 1 1 1 1 1 1 2 2 2 1 2 3 3 4 6 6 6 8 9 9 9
6 5 4 3 2 1 2 2 2 3 2 2 2 1 1 1 1 2 1 1 1 2 1 1 1 1 1 1 1 1 1 2 2 2 3 3 4 6 7 6 7 7 8
5 5 3 3 1 1 1 1 1 1 1 1 1 1 1 1 1 2 1 2 2 2 1 1 1 1 0 0 1 2 2 2 1 2 1 2 2 4 5 6 5 5 6
5 5 3 3 2 1 1 1 1 1 0 0 1 1 1 1 1 2 2 2 1 1 1 1 1 1 0 1 2 1 2 3 2 2 1 2 3 2 3 5 5 6 6
6 5 5 3 2 2 2 2 2 2 2 2 2 1 1 1 1 2 2 2 1 2 1 1 2 2 1 1 1 2 2 2 2 2 2 1 2 2 2 3 5 6 7
6 5 4 4 3 2 3 4 4 3 1 1 1 1 1 1 1 2 2 2 2 1 1 1 2 1 2 0 1 1 2 3 1 2 2 2 1 2 3 4 4 5 6
7 6 5 4 3 3 3 4 3 2 1 0 1 1 1 1 1 2 2 2 2 1 1 1 1 1 1 1 1 1 1 1 1 2 2 3 2 2 3 3 3 3 5
6 6 5 5 3 3 3 3 3 3 2 1 1 1 1 1 1 1 1 1 1 1 1 1 1 1 1 1 0 1 1 1 1 2 2 3 3 3 2 2 2 3 4
Wind_Direction
154 157 142 132 127 123 120 117 113 109 110 111 112 114 118 122 124 127 130 133 136 137 138 138 137 135 131 127 124 125 126 126 128 129 128 126 125 127 127 128 126 124 126
154 155 145 137 132 127 123 120 117 115 115 117 117 118 123 127 128 130 133 136 139 141 142 140 141 142 138 135 133 134 133 135 134 134 133 129 129 132 133 132 132 131 129
143 150 145 140 135 129 126 123 119 119 119 118 121 122 127 131 132 133 135 138 142 144 144 144 144 145 142 139 141 142 141 141 141 142 140 134 139 142 140 135 135 137 136
139 142 142 138 135 131 128 127 124 123 119 119 122 126 130 134 137 138 139 142 146 147 146 146 147 148 150 150 153 155 154 158 156 154 150 157 157 153 149 144 143 145 145
131 139 141 135 133 129 125 125 126 125 124 126 128 130 135 137 143 146 147 148 150 151 152 153 155 158 163 167 172 176 178 175 172 162 155 164 163 160 158 154 153 155 155
130 139 141 135 134 131 129 129 129 128 129 133 136 137 141 145 148 151 156 158 158 158 158 161 165 169 174 180 186 189 194 187 174 160 161 168 171 172 168 166 164 165 164
131 140 141 135 135 135 136 137 135 135 137 138 141 145 150 154 159 161 166 168 168 169 169 170 174 180 180 186 193 196 198 188 182 174 175 177 180 179 176 176 175 174 171
134 137 141 141 140 139 140 142 142 142 145 148 150 152 156 162 166 170 174 177 177 178 180 184 188 193 193 195 200 203 201 203 197 193 187 184 187 184 182 181 180 179 179
131 134 138 144 148 149 147 147 148 149 155 156 157 158 161 168 177 179 184 189 189 189 191 195 201 204 205 206 208 209 206 208 210 206 204 195 194 190 190 187 185 186 188
121 124 132 139 145 154 163 160 157 155 155 155 160 165 168 177 188 192 196 200 202 200 201 205 208 210 212 213 212 212 214 214 210 210 215 208 203 198 199 194 191 192 191
117 121 133 138 147 156 163 164 166 166 167 170 172 169 173 196 203 205 207 209 210 209 210 214 214 215 217 216 215 218 227 225 204 215 213 212 207 204 205 199 196 194 194
130 142 148 156 163 166 169 169 176 174 178 186 202 209 200 195 210 215 217 216 218 221 222 224 223 223 222 220 223 227 228 218 215 220 218 216 213 210 210 205 200 199 196
147 150 157 155 156 162 167 165 176 174 178 190 200 199 196 199 230 247 234 243 237 232 235 235 236 232 220 217 219 221 222 220 217 224 223 220 216 216 216 209 204 202 200
135 141 145 139 129 143 140 144 163 156 159 186 211 192 159 129 227 240 219 233 238 233 228 233 230 221 212 211 213 211 217 219 213 218 223 222 221 219 216 211 207 207 207
128 134 140 133 125 124 117 124 126 143 153 178 190 189 159 143 137 205 230 235 238 215 203 216 220 192 191 198 204 199 206 214 218 218 226 221 215 212 209 207 208 209 211
131 135 135 127 124 116 116 110 108 132 139 149 160 182 173 164 150 133 307 330 272 230 214 186 172 184 195 198 210 205 210 212 214 218 221 220 213 210 207 208 211 213 215
135 128 124 129 118 118 117 115 107 128 129 126 147 164 148 153 152 158 82 38 291 283 163 114 94 85 206 243 240 233 217 213 209 207 210 213 216 217 213 211 213 215 218
133 123 117 125 115 113 104 97 95 109 115 123 135 108 77 48 99 125 90 3 288 53 92 115 103 82 327 299 263 253 244 232 225 210 205 202 203 212 215 213 215 218 219
136 131 125 117 117 118 100 89 88 93 93 109 110 111 77 74 86 125 122 92 71 77 82 118 107 152 253 300 270 253 249 245 243 222 208 206 206 206 208 214 216 218 222
138 135 133 120 121 124 94 74 63 59 56 75 92 112 94 83 100 125 136 115 101 93 75 76 138 155 205 251 255 262 266 242 232 226 223 203 209 211 209 210 215 219 221
134 128 130 132 135 116 95 92 84 55 36 44 53 74 86 82 95 114 92 92 100 107 121 109 133 85 306 70 70 352 329 291 252 234 208 192 212 214 204 204 205 204 213
145 145 138 141 142 146 157 158 140 145 122 67 357 21 54 77 109 117 112 108 108 118 91 89 109 95 271 109 124 93 343 329 314 264 221 200 208 196 197 201 200 204 208
159 163 159 158 144 135 131 109 90 63 40 30 16 5 347 8 77 94 112 131 120 129 149 163 132 133 193 285 138 132 157 242 297 310 259 234 216 208 218 197 200 205 206
171 168 159 155 141 122 113 113 119 110 106 254 262 322 332 15 77 88 91 104 118 116 132 166 133 143 142 213 288 215 200 180 178 309 323 300 267 231 230 221 211 206 208
171 167 162 149 145 137 130 132 124 114 127 30 26 37 1 354 40 82 93 92 99 116 141 159 110 123 151 171 204 238 247 230 169 179 276 307 312 274 248 231 212 204 211
165 164 157 149 153 149 135 132 134 132 121 92 37 34 5 360 4 27 88 94 113 128 153 203 151 147 166 160 176 164 168 184 224 191 227 270 289 290 281 251 218 213 211
Height
1516 1516 1516 1515 1515 1515 1515 1516 1516 1516 1516 1517 1518 1519 1520 1522 1523 1525 1526 1528 1529 1530 1531 1532 1533 1534 1535 1536 1537 1538 1538 1539 1540 1541 1541 1542 1542 1543 1543 1543 1543 1544 1544
1515 1516 1516 1516 1516 1516 1516 1516 1516 1516 1517 1518 1519 1520 1521 1522 1523 1525 1526 1527 1529 1530 1531 1532 1533 1534 1535 1536 1537 1538 1539 1540 1540 1541 1542 1542 1543 1543 1543 1543 1544 1544 1545
1516 1516 1517 1517 1517 1517 1517 1517 1517 1517 1518 1519 1519 1520 1521 1522 1523 1525 1526 1527 1528 1529 1531 1532 1533 1534 1535 1536 1537 1538 1539 1540 1541 1541 1542 1542 1543 1543 1543 1543 1544 1544 1545
1517 1517 1518 1518 1518 1518 1518 1518 1518 1518 1519 1519 1520 1521 1522 1522 1523 1524 1525 1527 1528 1529 1530 1532 1533 1534 1535 1536 1537 1538 1539 1540 1541 1541 1542 1542 1542 1543 1543 1543 1544 1544 1545
1518 1519 1519 1519 1519 1519 1519 1519 1519 1519 1519 1520 1521 1521 1522 1523 1523 1524 1525 1526 1528 1529 1530 1532 1533 1534 1535 1536 1537 1538 1539 1539 1540 1541 1541 1542 1542 1542 1543 1543 1544 1544 1545
1519 1520 1520 1521 1521 1521 1521 1521 1520 1520 1521 1521 1521 1522 1523 1523 1524 1524 1525 1526 1527 1529 1530 1531 1532 1533 1534 1535 1536 1537 1538 1539 1540 1540 1541 1541 1542 1542 1543 1543 1544 1544 1545
1520 1521 1522 1522 1522 1522 1522 1522 1521 1521 1522 1522 1522 1522 1523 1523 1524 1525 1525 1526 1527 1528 1529 1530 1532 1533 1534 1535 1536 1537 1538 1539 1539 1540 1540 1541 1541 1542 1542 1543 1543 1544 1544
1522 1522 1522 1522 1523 1522 1522 1523 1522 1522 1522 1522 1522 1522 1523 1524 1524 1525 1525 1526 1527 1528 1529 1530 1531 1532 1533 1534 1535 1536 1537 1538 1539 1539 1540 1540 1541 1541 1542 1542 1543 1543 1544
1523 1523 1524 1524 1524 1523 1523 1523 1523 1523 1523 1522 1522 1522 1523 1524 1524 1525 1525 1526 1527 1528 1529 1530 1531 1531 1533 1534 1535 1536 1536 1537 1538 1538 1539 1539 1540 1541 1541 1542 1542 1542 1543
1525 1525 1525 1525 1525 1524 1524 1524 1524 1524 1523 1523 1523 1523 1524 1524 1525 1525 1526 1526 1527 1527 1528 1529 1530 1531 1532 1533 1534 1535 1536 1536 1537 1537 1538 1538 1539 1540 1540 1541 1541 1542 1542
1526 1526 1526 1526 1526 1525 1525 1525 1524 1524 1524 1524 1523 1524 1524 1524 1525 1525 1526 1526 1527 1527 1528 1528 1529 1530 1531 1532 1533 1534 1534 1535 1536 1536 1537 1537 1538 1538 1539 1540 1540 1541 1541
1526 1526 1526 1526 1526 1526 1525 1525 1525 1525 1524 1524 1524 1524 1524 1525 1525 1525 1525 1526 1526 1526 1527 1528 1528 1529 1530 1530 1531 1532 1533 1534 1534 1535 1535 1536 1537 1537 1538 1538 1539 1540 1540
1526 1526 1527 1527 1527 1526 1526 1525 1525 1525 1525 1524 1524 1524 1524 1525 1525 1525 1525 1525 1526 1526 1526 1527 1527 1528 1528 1529 1530 1531 1531 1532 1533 1533 1534 1535 1535 1535 1536 1537 1538 1538 1539
1526 1527 1527 1527 1527 1526 1526 1525 1525 1525 1525 1525 1524 1525 1524 1524 1525 1525 1525 1525 1525 1525 1525 1526 1526 1527 1527 1528 1528 1529 1530 1530 1531 1531 1532 1533 1534 1534 1534 1535 1536 1536 1537
1526 1527 1527 1527 1527 1526 1526 1525 1525 1525 1525 1525 1525 1524 1524 1524 1524 1524 1524 1524 1524 1525 1525 1525 1525 1525 1526 1526 1527 1528 1528 1529 1529 1530 1530 1531 1532 1532 1532 1533 1534 1534 1535
1527 1527 1527 1527 1526 1526 1526 1525 1525 1525 1525 1525 1524 1524 1524 1524 1523 1523 1523 1523 1523 1524 1524 1524 1524 1524 1524 1525 1526 1526 1527 1527 1528 1528 1529 1530 1530 1531 1531 1531 1532 1532 1533
1527 1527 1527 1527 1527 1526 1526 1525 1525 1525 1524 1524 1524 1524 1524 1523 1523 1523 1523 1523 1523 1523 1523 1523 1523 1523 1523 1524 1524 1525 1525 1526 1526 1527 1527 1528 1529 1529 1529 1529 1530 1530 1530
1527 1527 1527 1527 1527 1527 1526 1526 1525 1525 1525 1524 1524 1523 1523 1522 1522 1522 1522 1522 1522 1522 1522 1522 1522 1522 1522 1522 1523 1523 1524 1524 1525 1525 1526 1527 1527 1528 1528 1528 1528 1528 1529
1527 1527 1527 1527 1527 1527 1526 1526 1525 1525 1525 1524 1524 1523 1522 1522 1521 1521 1521 1521 1521 1521 1521 1521 1521 1521 1521 1521 1521 1522 1522 1523 1523 1523 1524 1525 1525 1526 1526 1526 1526 1526 1526
1526 1527 1527 1527 1527 1526 1526 1526 1525 1525 1524 1524 1523 1522 1521 1521 1520 1520 1520 1520 1520 1520 1520 1520 1520 1520 1520 1520 1520 1520 1521 1521 1521 1522 1522 1523 1523 1523 1524 1524 1524 1524 1524
1526 1526 1526 1526 1526 1526 1525 1525 1525 1524 1524 1524 1523 1522 1521 1520 1520 1519 1519 1519 1519 1519 1519 1519 1519 1519 1519 1519 1519 1519 1520 1520 1520 1520 1520 1521 1521 1521 1522 1522 1522 1522 1522
1526 1526 1526 1526 1526 1525 1524 1524 1524 1524 1524 1524 1523 1522 1521 1520 1519 1519 1518 1518 1518 1518 1518 1519 1519 1518 1518 1518 1518 1518 1518 1519 1518 1518 1518 1518 1519 1519 1519 1519 1520 1520 1520
1525 1525 1525 1525 1525 1524 1524 1524 1525 1524 1524 1523 1522 1521 1521 1520 1519 1518 1518 1518 1517 1517 1517 1517 1517 1517 1517 1517 1517 1517 1517 1516 1516 1516 1516 1516 1517 1517 1517 1517 1517 1517 1517
1524 1525 1525 1525 1525 1524 1524 1524 1524 1524 1523 1523 1522 1521 1520 1519 1518 1518 1517 1517 1517 1516 1516 1516 1516 1516 1516 1516 1516 1516 1516 1516 1516 1515 1515 1515 1514 1514 1514 1514 1514 1514 1514
1524 1524 1525 1524 1524 1524 1524 1524 1524 1524 1523 1523 1522 1521 1520 1519 1518 1517 1517 1516 1516 1516 1515 1515 1515 1515 1515 1514 1514 1514 1514 1514 1514 1514 1512 1512 1512 1512 1512 1512 1511 1512 1511
1523 1524 1524 1524 1524 1524 1524 1524 1524 1523 1523 1522 1521 1521 1520 1519 1518 1517 1516 1516 1515 1515 1515 1514 1514 1514 1514 1514 1513 1513 1513 1513 1512 1511 1510 1510 1509 1509 1509 1509 1508 1509 1508